Terminal Aerodrome Forecast
Issued by NWS Sterling, VA

Current Version | Previous Version | Graphics & Text | Print | Product List | Glossary On
Versions: 1 2 3 4 5 6 7 8 9 10 11 12 13 14 15 16 17 18 19 20 21
000
FTUS41 KLWX 180900 AAA
TAFDCA
TAF AMD
KDCA 180907Z 1809/1906 07004KT P6SM OVC025
     FM181400 05004KT P6SM BKN035
     FM181900 11006KT P6SM BKN250
     FM190400 00000KT P6SM OVC250=

USA.gov is the U.S. government's official web portal to all federal, state and local government web resources and services.